#timestamp,LO_Frequency,Hit,StdDev 
1549850415.8,286046981.8,N
1549850435.6,286046981.3,N
1549850455.4,286046981.5,N
1549850475.3,286046979.1,N
1549850495.1,286046982.0,N
1549850515.9,286046977.6,N
1549850535.7,286046978.6,N
1549850555.5,286046979.8,N
1549850575.4,286046977.7,N
1549850595.2,286046976.3,N
1549850615.1,286046976.6,N
1549850616.0,286046976.6,N
1549850635.8,286046980.4,N
1549850655.6,286046979.1,N
1549850675.5,286046982.0,N
1549850695.3,286046981.7,N
1549850715.1,286046982.0,N
1549850735.9,286046978.5,N
1549850755.7,286046983.5,N
1549850775.6,286046984.2,N
1549850795.4,286046982.2,Y
1549850815.2,286047000.7,P
1549850835.1,286046996.5,N
1549850836.0,286046996.5,N
1549850855.8,286046998.1,N
1549850875.7,286047002.3,N
1549850895.5,286047002.0,N
1549850915.3,286047001.2,N
1549850935.2,286046999.9,N
1549850955.0,286047000.6,N
1549850955.9,286047000.6,N
1549850975.7,286046997.7,N
1549850995.6,286046997.2,N
1549851015.4,286046998.7,N
1549851035.3,286046997.2,N
1549851055.1,286046998.3,N
1549851075.8,286046997.0,N
1549851095.7,286047001.4,N
1549851115.5,286047000.1,N
1549851135.4,286046996.5,N
1549851155.2,286046998.5,N
1549851175.0,286046999.8,N
1549851175.9,286046999.8,N
1549851195.8,286047002.6,N
1549851215.6,286047017.2,Y
1549851235.4,286047031.6,P
1549851255.3,286047035.4,N
1549851275.1,286047030.7,N
1549851295.9,286047032.7,N
1549851315.7,286047028.5,N
1549851335.5,286047025.5,N
1549851355.4,286047021.5,N
1549851375.2,286047016.6,N
1549851395.1,286047013.6,N
1549851396.0,286047013.6,N
1549851415.8,286047014.5,N
1549851435.6,286047014.3,N
1549851455.5,286047012.2,N
1549851475.3,286047010.4,N
1549851495.1,286047011.4,N
1549851515.9,286047013.9,N
1549851535.7,286047010.9,N
1549851555.6,286047011.0,N
1549851575.4,286047011.6,N
1549851595.2,286047011.8,N
1549851615.1,286047008.9,N
1549851616.0,286047008.9,N
1549851635.8,286047008.0,N
1549851655.7,286047007.9,N
1549851675.5,286047008.9,N
1549851695.3,286047017.1,N
1549851715.2,286047013.3,N
1549851735.0,286047017.2,N
1549851735.9,286047017.2,N
1549851755.7,286047017.0,N
1549851775.6,286047018.8,N
1549851795.4,286047015.9,N
1549851815.3,286047014.8,N
1549851835.1,286047017.1,N
1549851855.8,286047016.7,Y
1549851875.7,286047000.9,P
1549851895.5,286047001.2,N
1549851915.4,286046996.6,N
1549851935.2,286046995.4,N
1549851955.0,286046997.9,N
1549851955.9,286046997.9,N
1549851975.8,286046995.7,N
1549851995.6,286046995.2,N
1549852015.5,286046996.1,N
1549852035.3,286046996.4,N
1549852055.1,286046993.0,N
1549852075.9,286046989.2,N
1549852095.7,286046989.2,N
1549852115.5,286046990.8,N
1549852135.4,286046992.5,N
1549852155.2,286046992.9,N
1549852175.1,286046990.4,N
1549852176.0,286046990.4,N
1549852195.8,286046991.1,N
1549852215.6,286046990.0,N
1549852235.5,286046991.3,N
1549852255.3,286046993.6,N
1549852275.2,286046995.6,N
1549852295.9,286046997.6,N
1549852315.7,286046996.0,N
1549852335.6,286046995.6,N
1549852355.4,286046996.9,N
1549852375.2,286047001.0,N
1549852395.1,286046996.6,N
1549852396.0,286046996.6,N
1549852415.8,286046997.2,N
1549852435.7,286047000.7,N
1549852455.5,286047000.8,N
1549852475.3,286046999.7,N
1549852495.2,286047002.1,N
1549852515.0,286046998.8,N
1549852515.9,286046998.8,N
1549852535.8,286047001.1,N
1549852555.6,286046998.4,N
1549852575.4,286046999.3,N
1549852595.3,286046999.8,N
1549852615.1,286047002.7,N
1549852635.8,286047005.3,N
1549852655.7,286047005.9,N
1549852675.5,286047000.8,N
1549852695.4,286046997.6,N
1549852715.2,286046995.6,N
1549852735.0,286046997.1,N
1549852735.9,286046997.1,N
1549852755.8,286046995.2,N
1549852775.6,286046999.4,N
1549852795.5,286046997.1,N
1549852815.3,286046996.0,N
1549852835.1,286046994.4,N
1549852855.9,286046990.2,Y
1549852875.7,286046992.1,P
1549852895.5,286046993.3,N
1549852915.4,286046994.0,N
1549852935.2,286046987.6,Y
1549852955.1,286046991.7,P
1549852956.0,286046991.7,P
1549852975.8,286046988.1,P
1549852995.7,286046987.8,Y
1549853015.5,286046997.2,P
1549853035.3,286046996.5,N
1549853055.2,286046998.8,N
1549853075.9,286047000.0,N
1549853095.7,286047000.9,N
1549853115.6,286047001.2,N
1549853135.4,286047001.1,N
1549853155.3,286046998.4,N
1549853175.1,286047000.5,N
1549853176.0,286047000.5,N
1549853195.8,286047001.9,N
1549853215.7,286047003.7,N
1549853235.5,286047002.2,N
1549853255.3,286047002.7,N
1549853275.2,286047003.0,N
1549853295.0,286047003.6,N
1549853295.9,286047003.6,N
1549853315.8,286047001.5,N
1549853335.6,286047000.8,N
1549853355.4,286047002.4,N
1549853375.3,286046999.7,N
1549853395.1,286047002.1,N
1549853415.9,286047005.7,N
1549853435.7,286047010.7,Y
1549853455.5,286047012.0,P
1549853475.4,286047008.1,N
1549853495.2,286047008.9,N
1549853515.0,286047008.4,N
1549853516.0,286047008.4,N
1549853535.8,286047009.6,N
1549853555.6,286047008.3,N
1549853575.5,286047009.1,Y
1549853595.3,286047001.2,P
1549853615.1,286046998.0,N
1549853635.9,286046993.3,N
1549853655.7,286046992.7,N
1549853675.6,286046994.5,N
1549853695.4,286046999.1,N
1549853715.2,286046999.2,N
1549853735.1,286046995.9,N
1549853736.0,286046995.9,N
1549853755.8,286046992.8,N
1549853775.7,286046993.1,N
1549853795.5,286046992.4,N
1549853815.3,286046991.8,N
1549853835.2,286046992.6,N
1549853855.0,286046995.0,N
1549853855.9,286046995.0,N
1549853875.7,286046997.2,N
1549853895.6,286046995.9,N
1549853915.4,286046996.4,N
1549853935.3,286046993.5,N
1549853955.1,286046990.1,N
1549853956.0,286046990.1,N
1549853975.8,286046990.9,N
1549853995.7,286046991.1,N
